Simultaneous Nadir Overpasses (SNOs) Predictions

Prediction of SNOs between LANDSAT-8 and METOP-A Satellite Orbit:

Table of predicted SNOs for the next 14.0 days since TLE Epoch: 4/25/2020
Index Date (LANDSAT-8) Time (LANDSAT-8) Lat,Lon (LANDSAT-8) SZA (LANDSAT-8 ) Date (METOP-A) Time (METOP-A) Lat,Lon (METOP-A) SZA (METOP-A ) Distance(km) Time Diff (sec)
1 04/26/2020 17:48:41 -81.49, 138.72 109.64 04/26/2020 17:47:49 -81.49, 138.70 109.66 0.23 52
2 04/26/2020 18:38:07 81.49, -53.58 70.37 04/26/2020 18:38:29 81.49, -53.67 70.36 1.63 22
3 04/29/2020 13:22:54 -81.49,-154.92 110.51 04/29/2020 13:22:10 -81.49,-154.75 110.51 2.71 44
4 04/29/2020 14:12:20 81.49, 12.75 69.49 04/29/2020 14:12:50 81.48, 12.83 69.51 1.40 30
5 05/02/2020 08:57:08 -81.48, -88.58 111.36 05/02/2020 08:56:33 -81.49, -88.63 111.38 1.21 35
6 05/02/2020 09:46:34 81.48, 79.06 68.63 05/02/2020 09:47:13 81.49, 78.92 68.64 2.35 39
7 05/05/2020 04:31:22 -81.48, -22.27 112.18 05/05/2020 04:30:55 -81.49, -22.12 112.17 2.79 27
8 05/05/2020 05:20:48 81.47, 145.35 67.81 05/05/2020 05:21:35 81.49, 145.40 67.85 1.50 47
9 05/08/2020 00:05:34 -81.49, 44.41 112.92 05/08/2020 00:05:16 -81.49, 44.37 112.93 0.64 18




NCC Satellite Simultaneous Nadir Overpasses (SNOs) Prediction Service
